COSMOS 1275 DEB, 17618

Orbit data source: Space-Track

COSMOS 1275 DEB, 17618 is space debris in LEO originally from a launch on Thu, 04 Jun 1981 UTC launched from the Plesetsk Missile And Space Complex (PKMTR). Debris objects in space refer to the collection of defunct objects orbiting the Earth. Examples of debris include non-operational satellites, rocket bodies, and fragments generated from explosions, collisions, or faulty payload assembly.

Loading next visibility...
Identifier
17618, 1981-053KM
Orbit
LEO
Country
Flag of CISCIS
Related business
Manufacturer
Unknown
Mission
Spacecraft
Bus & Motor
Unknown
Mass
Unknown
Launch date (UTC)
1981-06-04 (45 years ago)
Launch vehicle
Unknown
Launch site
Plesetsk Missile And Space Complex (PKMTR)
Object type
Payload
Rocket body
Debris
Shape & HBR
Unknown shape, 0.1 m
Radar Cross Section
Small (<0.1 m²)

Expand to show TLE details & history
Last TLE update: 14 hours ago

TLE from 14 hours ago
0 COSMOS 1275 DEB
1 17618U 81053KM  26144.78466780  .00001696  00000-0  89431-3 0  9993
2 17618  82.8464 158.4177 0041525 251.4166 286.8730 14.13010066 90692
Epoch: 2026-05-24T18:49Z
TLE epoch observation values (Epoch: 2026-05-24T18:49:55.297Z)
Latitude
2.04534°
Longitude
173.3°
Altitude
843.199 km
Speed
7.436 km/s
True Right ascension
22h 32m 38s
True Declination
2° 01' 60"
Sunlit
Object was in daylight at epoch
Visualization orbit readout
Latitude
Unknown
Longitude
Unknown
Altitude
Unknown
Speed
Unknown
Apparent Right ascension
Unknown
Apparent Declination
Unknown
Sunlit
N/A
Visualization observer readout
Local Sidereal Time
17:36:57
Azimuth
Unknown
Elevation
Unknown
Doppler factor
Unknown
Orbital elements
Apogee altitude
876.189 km
Perigee altitude
816.191 km
Semi-major axis
7,224.327 km
Eccentricity
0.00415
Inclination
82.8464°
RAAN
158.4177°
Arg. of periapsis
251.4166°
True anomaly
286.41696°
Mean anomaly
286.873°
Eccentric anomaly
286.64505°
Mean motion
3.53466 °/min
Orbital period
101.85 mins
BSTAR
0.00089431
Loading maneuver chart data...
Computing Atmospheric mass density...
Loading historical data...
Loading historical data...
Loading historical data...
Loading historical data...
Loading historical data...
Loading historical data...
Loading historical data...

Documentation

Showing up to 5 results
|